This is the latest recevied weather packets stored in our database for station/object IW1CBG-23. If no packets are shown the sender has not sent any weather packets the latest 10 day(s).
| Time | Temp. | Humidity | Pressure | Rain* | Wind** | Luminosity | Snow |
|---|---|---|---|---|---|---|---|
| 1777754503 | 11.67° C | 54% | 1017.2 hPa | - | - | - | - |
| 1777753265 | 12.22° C | 56% | 1017.3 hPa | - | - | - | - |
| 1777752027 | 12.22° C | 56% | 1017.3 hPa | - | - | - | - |
| 1777750791 | 11.67° C | 56% | 1017.1 hPa | - | - | - | - |
| 1777749554 | 11.67° C | 55% | 1016.9 hPa | - | - | - | - |
| 1777748317 | 11.67° C | 56% | 1016.8 hPa | - | - | - | - |
| 1777747078 | 11.67° C | 56% | 1016.6 hPa | - | - | - | - |
| 1777745841 | 12.22° C | 56% | 1016.4 hPa | - | - | - | - |
| 1777744607 | 12.22° C | 55% | 1016.4 hPa | - | - | - | - |
| 1777743370 | 12.78° C | 55% | 1016.3 hPa | - | - | - | - |
| 1777742135 | 13.33° C | 53% | 1016.5 hPa | - | - | - | - |
| 1777740898 | 13.33° C | 53% | 1016.5 hPa | - | - | - | - |
| 1777739661 | 13.89° C | 53% | 1016.6 hPa | - | - | - | - |
| 1777738424 | 15° C | 51% | 1016.7 hPa | - | - | - | - |
| 1777737187 | 15.56° C | 50% | 1016.9 hPa | - | - | - | - |
| 1777735950 | 15.56° C | 50% | 1017.1 hPa | - | - | - | - |
| 1777734714 | 15.56° C | 50% | 1017.3 hPa | - | - | - | - |
| 1777733476 | 16.11° C | 49% | 1017.4 hPa | - | - | - | - |
| 1777732239 | 15.56° C | 49% | 1017.7 hPa | - | - | - | - |
| 1777731005 | 16.67° C | 46% | 1018 hPa | - | - | - | - |
| 1777729770 | 17.78° C | 46% | 1018.1 hPa | - | - | - | - |
| 1777728532 | 17.78° C | 44% | 1018.3 hPa | - | - | - | - |
| 1777727296 | 17.22° C | 42% | 1018.4 hPa | - | - | - | - |
| 1777726060 | 19.44° C | 42% | 1018.7 hPa | - | - | - | - |
| 1777724823 | 20.56° C | 43% | 1018.9 hPa | - | - | - | - |
* Rain since midnight (hover to see other rain measurements)
** Current wind speed in m/s (hover to see current wind gust speed)